Location: Jackson
(42.2460°N, 84.4010°W)
Time: 18:46:52
(UTC-04:00)

Courier 1B Rocket - Pass Details

Date: 17 February 2026
Orbit: 920 x 1201 km, 28.2° (Epoch: 12 March)

Event Time Altitude Azimuth Distance (km) Brightness Sun altitude
Rises 20:59:36 0° 237° (WSW) 3,558 8.5 -31.4°
Reaches altitude 10° 21:02:44 10° 223° (SW) 2,637 7.5 -31.9°
Enters shadow 21:05:20 19° 201° (SSW) 2,093 6.7 -32.4°
Maximum altitude 21:07:29 22° 174° (S) 1,940 - -32.8°
Drops below altitude 10° 21:12:25 10° 125° (SE) 2,750 - -33.6°
Sets 21:15:46 0° 111° (ESE) 3,751 - -34.2°
